Regional Weather Roundup
Issued by NWS

Home | Current Version | Previous Version | Text Only | Print | Product List | Glossary Off
Versions: 1 2 3 4 5 6 7 8 9 10 11 12 13 14 15 16 17 18 19 20 21 22 23 24 25 26 27 28 29 30 31 32 33 34 35 36 37 38 39 40 41 42 43 44 45 46 47

000
ASUS43 KDMX 280907
RWRIA

WEATHER ROUNDUP FOR IOWA
NATIONAL WEATHER SERVICE DES MOINES IA
300 AM CST SUN DEC 28 2014

NOTE: "FAIR" INDICATES FEW OR NO CLOUDS BELOW 12,000 FEET WITH NO
SIGNIFICANT WEATHER AND/OR OBSTRUCTIONS TO VISIBILITY.

* - THESE STATIONS ARE NOT NWS STATIONS...THUS NOT UNDER NWS
QUALITY CONTROL.  THEY ALSO DO NOT REPORT WEATHER SUCH
AS PRECIPITATION OR FOG.

IAZ001>003-012>014-020>022-031>034-043>046-281000-
   NORTHWEST IOWA

CITY           SKY/WX    TMP DP  RH WIND       PRES   REMARKS
CARROLL *      CLEAR     14  10  85 SW5       30.15R WCI   6
CHEROKEE *     CLEAR      5   3  92 CALM      30.13S
DENISON *      CLEAR     14  12  92 CALM      30.13S
LE MARS *      CLEAR      5   3  92 CALM      30.13S
ORANGE CITY *  CLEAR      9   7  92 CALM      30.09S
SHELDON *      PTCLDY     5   3  92 SW3       30.10R
SIOUX CITY     CLEAR      8   4  83 E6        30.14S WCI  -2
SPENCER        CLEAR      6   2  83 SW5       30.11R WCI  -3
STORM LAKE *   CLEAR     12  10  92 SW10      30.11S WCI  -1
$$

IAZ055>058-069>071-079>083-090>094-281000-
   SOUTHWEST IOWA

CITY           SKY/WX    TMP DP  RH WIND       PRES   REMARKS
ATLANTIC *     CLEAR     14  10  85 CALM      30.17F
AUDUBON *      CLEAR     12   9  85 S3        30.15S
CLARINDA *     CLEAR     16  14  93 CALM      30.23S
COUNCIL BLFS * CLEAR     18  18 100 S7        30.15F WCI   8
CRESTON *      CLEAR     14  12  92 SW6       30.19R WCI   5
HARLAN  *      CLEAR     10  10 100 S6        30.20S WCI   1
LAMONI         CLEAR     15  13  91 SW6       30.20R WCI   6
RED OAK *      CLEAR     16  14  93 CALM      30.21S
SHENANDOAH *   CLEAR     16  16 100 CALM      30.22S
$$

IAZ047>049-059>061-072>074-084-281000-
   CENTRAL IOWA

CITY           SKY/WX    TMP DP  RH WIND       PRES   REMARKS
AMES           CLEAR     16  11  80 SW5       30.18R WCI   9
ANKENY *       CLEAR     16  12  86 CALM      30.19S
CHARITON *     CLEAR     18  16  93 SW5       30.21R WCI  11
DES MOINES     CLEAR     18  13  80 S5        30.20S WCI  11
GRINNELL*      CLEAR     14  12  92 SW7       30.19S WCI   4
KNOXVILLE *    CLEAR     18  14  86 SW6       30.20R WCI   9
MARSHALLTOWN   CLEAR     13  10  88 SW7       30.17R WCI   3
PELLA *        CLEAR     19  18  93 W3        30.23R
PERRY *          N/A     14  12  92 S5        30.17F WCI   6
$$

IAZ004>006-015-016-023>025-035-036-281000-
   NORTH CENTRAL IOWA

CITY           SKY/WX    TMP DP  RH WIND       PRES   REMARKS
ALGONA *       CLEAR     10   7  85 S8        30.13S WCI  -1
CLARION *      CLEAR      7   5  92 SW6       30.14F WCI  -3
ESTHERVILLE    CLEAR      8   6  92 SW7       30.10R WCI  -3
FORT DODGE *   CLEAR      9   3  78 S5        30.15S WCI   0
MASON CITY     CLEAR      6   2  83 CALM      30.14R
FOREST CITY *  CLEAR     10   5  79 SW3       30.12S
IOWA FALLS *     N/A     14  10  85 SW6       30.16S WCI   5
$$

IAZ007>011-017>019-026>030-037>042-050>054-066-281000-
   NORTHEAST IOWA

CITY           SKY/WX    TMP DP  RH WIND       PRES   REMARKS
CEDAR RAPIDS   CLEAR     14  12  92 W6        30.19R WCI   5
CHARLES CITY * PTCLDY    12   9  85 W5        30.14F WCI   4
CLINTON *      CLEAR     19  12  73 NW9       30.21S WCI   9
DECORAH *      CLEAR     14  10  85 W5        30.13S WCI   6
DUBUQUE        CLEAR     15  12  88 SW6       30.14F WCI   6
MONTICELLO *   CLEAR     18  16  93 SW5       30.17S WCI  11
OELWEIN *      CLEAR     16  12  86 SW5       30.15S WCI   9
WATERLOO       CLEAR     12   9  87 SW6       30.16S WCI   3
$$

IAZ064-065-067-068-078-281000-
   EAST CENTRAL IOWA

CITY           SKY/WX    TMP DP  RH WIND       PRES   REMARKS
DAVENPORT      CLEAR     18  13  80 W8        30.19S WCI   8
IOWA CITY      CLEAR     17  14  88 W5        30.23R WCI  10
MT. PLEASANT * MOCLDY    25  19  80 W3        30.21S
MUSCATINE *    CLEAR     21  18  86 W7        30.23R WCI  13
QUAD CITIES    CLEAR     20  15  81 W7        30.20S WCI  11
$$

IAZ062-063-075>077-085>089-095>099-281000-
   SOUTHEAST IOWA

CITY           SKY/WX    TMP DP  RH WIND       PRES   REMARKS
BURLINGTON     CLOUDY    27  20  75 NW6       30.20S WCI  20
FAIRFIELD *    CLEAR     23  18  80 W6        30.21S WCI  16
FORT MADISON * CLOUDY    28  23  80 NW8       30.22R WCI  20
KEOKUK *       CLOUDY    27  21  80 W9        30.21R WCI  17
OSKALOOSA *      N/A     18  16  93 W5        30.22R WCI  11
CENTERVILLE *  CLEAR     19  18  93 W7        30.22F WCI  10
OTTUMWA        CLEAR     18  16  92 W7        30.21R WCI   9
WASHINGTON *   CLEAR     21  21 100 NW7       30.21S WCI  13
$$

ABBREVIATIONS USED IN REMARKS
   TC - TEMPERATURES IN CELSIUS
  WCI - WIND CHILL INDEX
   HX - HEAT INDEX
  VSB - VISIBILITY
$$



USA.gov is the U.S. government's official web portal to all federal, state and local government web resources and services.